SV2RIM-2 Weather Reports


Display with metric or nautical units.
time (UTC)temp
F
wind
direction
speed
MPH
gust
MPH
rain 1hr
in
rain 24hr
in
rain mn
in
humidity
%
barometer
mb
20260506122019 83 331 2.0 5.0 0.00 0.00 0.00 38 1014.3
20260506121019 82 196 3.0 6.0 0.00 0.00 0.00 40 1014.5
20260506120019 84 198 2.0 6.0 0.00 0.00 0.00 38 1014.6
20260506115019 82 210 2.0 3.0 0.00 0.00 0.00 39 1014.7
20260506114019 83 198 2.0 6.0 0.00 0.00 0.00 38 1014.8
20260506113018 82 204 2.0 6.0 0.00 0.00 0.00 39 1014.9
20260506112019 82 188 2.0 6.0 0.00 0.00 0.00 38 1015.0
20260506111019 81 213 3.0 4.0 0.00 0.00 0.00 39 1015.1
20260506110019 80 194 2.0 4.0 0.00 0.00 0.00 39 1015.1
20260506105018 80 197 3.0 7.0 0.00 0.00 0.00 39 1015.2
20260506104019 80 210 2.0 4.0 0.00 0.00 0.00 38 1015.2
20260506103018 79 208 2.0 5.0 0.00 0.00 0.00 39 1015.3
20260506102019 79 211 3.0 7.0 0.00 0.00 0.00 40 1015.4
20260506101018 78 191 2.0 4.0 0.00 0.00 0.00 41 1015.5
20260506100019 78 218 1.0 4.0 0.00 0.00 0.00 41 1015.6
20260506095019 77 209 2.0 3.0 0.00 0.00 0.00 42 1015.6
20260506094019 78 220 1.0 3.0 0.00 0.00 0.00 40 1015.7
20260506093019 77 198 3.0 7.0 0.00 0.00 0.00 42 1015.7
20260506092019 76 212 2.0 4.0 0.00 0.00 0.00 42 1015.8
20260506091019 76 208 2.0 5.0 0.00 0.00 0.00 42 1015.7
20260506090019 76 259 1.0 3.0 0.00 0.00 0.00 42 1015.8
20260506085018 75 175 2.0 7.0 0.00 0.00 0.00 42 1015.8
20260506084019 76 237 2.0 4.0 0.00 0.00 0.00 41 1015.7
20260506083019 75 279 1.0 3.0 0.00 0.00 0.00 41 1015.7
20260506082019 75 228 2.0 4.0 0.00 0.00 0.00 42 1015.7
20260506081019 74 224 1.0 4.0 0.00 0.00 0.00 43 1015.7
20260506073019 73 211 1.0 3.0 0.00 0.00 0.00 41 1015.6
20260506072019 73 240 1.0 3.0 0.00 0.00 0.00 41 1015.5
20260506071019 72 205 2.0 4.0 0.00 0.00 0.00 42 1015.5
20260506062019 75 209 1.0 3.0 0.00 0.00 0.00 36 1015.7
20260506061019 74 293 1.0 3.0 0.00 0.00 0.00 36 1015.6
20260506051019 55 341 4.0 8.0 0.00 0.00 0.00 59 1015.5
20260506045019 54 339 6.0 11.0 0.00 0.00 0.00 60 1015.4
20260506044019 52 348 6.0 9.0 0.00 0.00 0.00 62 1015.3
20260506043019 51 310 5.0 10.0 0.00 0.00 0.00 64 1015.3
20260506042019 52 341 7.0 13.0 0.00 0.00 0.00 62 1015.2
20260506041019 53 342 7.0 11.0 0.00 0.00 0.00 60 1015.1
20260506040019 52 345 7.0 11.0 0.00 0.00 0.00 61 1015.1
20260506035019 51 325 6.0 12.0 0.00 0.00 0.00 62 1015.1
20260506034019 51 335 6.0 10.0 0.00 0.00 0.00 63 1015.0
20260506033019 51 339 7.0 12.0 0.00 0.00 0.00 62 1014.9
20260506032019 51 335 5.0 9.0 0.00 0.00 0.00 61 1014.9
20260506031019 51 353 6.0 11.0 0.00 0.00 0.00 61 1014.8
20260506030019 51 331 5.0 8.0 0.00 0.00 0.00 61 1014.8
20260506025019 51 334 5.0 10.0 0.00 0.00 0.00 61 1014.7
20260506024019 51 313 6.0 11.0 0.00 0.00 0.00 61 1014.7
20260506023019 52 334 6.0 10.0 0.00 0.00 0.00 60 1014.8
20260506022019 52 328 5.0 9.0 0.00 0.00 0.00 59 1014.8
20260506021019 52 309 5.0 8.0 0.00 0.00 0.00 59 1014.8
20260506020019 52 330 5.0 8.0 0.00 0.00 0.00 59 1014.8
20260506015019 52 316 5.0 8.0 0.00 0.00 0.00 59 1014.8
20260506014019 53 330 6.0 9.0 0.00 0.00 0.00 58 1014.9
20260506013019 53 330 5.0 11.0 0.00 0.00 0.00 58 1014.8
20260506012019 53 332 5.0 8.0 0.00 0.00 0.00 58 1014.9
20260506011019 53 318 4.0 7.0 0.00 0.00 0.00 57 1014.9
20260506010019 54 312 4.0 7.0 0.00 0.00 0.00 57 1014.9
20260506005019 54 353 5.0 8.0 0.00 0.00 0.00 56 1014.8
20260506004018 54 335 5.0 10.0 0.00 0.00 0.00 56 1014.8
20260506003019 55 323 4.0 7.0 0.00 0.00 0.00 55 1014.8
20260506002019 55 342 4.0 7.0 0.00 0.00 0.00 55 1014.8
20260506001019 55 311 3.0 6.0 0.00 0.00 0.00 54 1014.8
20260506000019 55 326 3.0 5.0 0.00 0.00 0.00 54 1014.9
20260505235019 55 311 3.0 6.0 0.00 0.00 0.00 54 1015.0
20260505234019 55 304 4.0 6.0 0.00 0.00 0.00 54 1015.0
20260505233019 55 312 4.0 7.0 0.00 0.00 0.00 53 1015.0
20260505232019 55 333 5.0 9.0 0.00 0.00 0.00 53 1015.0
20260505231019 55 336 4.0 7.0 0.00 0.00 0.00 52 1015.0
20260505230018 55 316 5.0 9.0 0.00 0.00 0.00 52 1015.0
20260505225019 54 342 5.0 9.0 0.00 0.00 0.00 52 1015.0
20260505224019 54 341 6.0 10.0 0.00 0.00 0.00 52 1015.0
20260505223019 54 341 6.0 9.0 0.00 0.00 0.00 52 1015.0
20260505222019 55 354 5.0 9.0 0.00 0.00 0.00 51 1015.0
20260505221019 56 329 4.0 7.0 0.00 0.00 0.00 49 1015.0
20260505220018 55 328 4.0 7.0 0.00 0.00 0.00 50 1014.9
20260505215019 56 325 4.0 7.0 0.00 0.00 0.00 48 1014.9
20260505214019 57 347 3.0 6.0 0.00 0.00 0.00 46 1014.8
20260505213019 58 349 3.0 6.0 0.00 0.00 0.00 46 1014.7
20260505212019 58 349 3.0 6.0 0.00 0.00 0.00 45 1014.6
20260505211019 58 322 2.0 6.0 0.00 0.00 0.00 45 1014.5
20260505210019 60 327 2.0 6.0 0.00 0.00 0.00 43 1014.5
20260505205019 59 277 1.0 3.0 0.00 0.00 0.00 43 1014.4
20260505204019 59 315 2.0 4.0 0.00 0.00 0.00 43 1014.4
20260505203019 59 348 4.0 7.0 0.00 0.00 0.00 43 1014.3
20260505202019 60 347 3.0 5.0 0.00 0.00 0.00 42 1014.3
20260505201019 61 284 2.0 3.0 0.00 0.00 0.00 41 1014.1
20260505200019 61 295 1.0 2.0 0.00 0.00 0.00 40 1014.1
20260505195019 62 297 0.0 1.0 0.00 0.00 0.00 40 1013.9
20260505194019 62 338 5.0 8.0 0.00 0.00 0.00 39 1013.7
20260505193019 63 348 2.0 7.0 0.00 0.00 0.00 38 1013.5
20260505192018 63 338 5.0 8.0 0.00 0.00 0.00 38 1013.4
20260505191019 64 354 4.0 9.0 0.00 0.00 0.00 37 1013.2
20260505190019 64 349 4.0 8.0 0.00 0.00 0.00 36 1013.1
20260505185019 64 339 5.0 8.0 0.00 0.00 0.00 36 1012.9
20260505184019 64 345 6.0 10.0 0.00 0.00 0.00 37 1012.8
20260505183019 64 315 6.0 10.0 0.00 0.00 0.00 36 1012.7
20260505182019 64 347 6.0 10.0 0.00 0.00 0.00 35 1012.6
20260505181019 65 320 4.0 8.0 0.00 0.00 0.00 34 1012.4
20260505180019 66 330 4.0 8.0 0.00 0.00 0.00 33 1012.4
20260505175019 66 306 2.0 5.0 0.00 0.00 0.00 32 1012.2
20260505174018 67 313 4.0 6.0 0.00 0.00 0.00 31 1012.2
20260505173019 68 305 3.0 5.0 0.00 0.00 0.00 30 1012.3
20260505172019 71 311 2.0 4.0 0.00 0.00 0.00 28 1012.3
20260505171019 73 278 0.0 2.0 0.00 0.00 0.00 26 1012.3
20260505170019 75 219 1.0 2.0 0.00 0.00 0.00 25 1012.2
20260505165019 77 218 1.0 2.0 0.00 0.00 0.00 24 1012.2
20260505164018 80 202 1.0 2.0 0.00 0.00 0.00 21 1012.2
20260505163019 77 196 1.0 2.0 0.00 0.00 0.00 23 1012.2
20260505162019 79 203 1.0 3.0 0.00 0.00 0.00 23 1012.2
20260505161019 81 210 1.0 3.0 0.00 0.00 0.00 23 1012.2
20260505153019 89 186 1.0 5.0 0.00 0.00 0.00 19 1012.3
20260505152019 88 191 2.0 4.0 0.00 0.00 0.00 20 1012.3
20260505151019 89 204 2.0 5.0 0.00 0.00 0.00 20 1012.4
20260505125019 87 198 2.0 4.0 0.00 0.00 0.00 24 1013.6
20260505124019 88 235 2.0 4.0 0.00 0.00 0.00 23 1013.6
20260505123019 87 222 1.0 3.0 0.00 0.00 0.00 23 1013.8